Location: Dal�� Lhota
(48.7500°N, 14.0167°E)
Time: 01:58:26
(UTC+00:00)

Cosmos 1707 - Pass Details

Date: 24 September 2020
Orbit: 515 x 530 km, 82.5° (Epoch: 29 October)

Event Time Altitude Azimuth Distance (km) Brightness Sun altitude
Rises 17:59:10 0° 346° (NNW) 2,650 6.7 -11.0°
Reaches altitude 10° 18:01:20 10° 341° (NNW) 1,756 5.8 -11.4°
Maximum altitude 18:05:05 52° 265° (W) 650 3.6 -12.0°
Drops below altitude 10° 18:08:48 10° 189° (S) 1,740 5.3 -12.6°
Sets 18:10:57 0° 184° (S) 2,622 6.2 -12.9°
